Flag for U.S.A. Weather past 2 weeks in Talkeetna, Alaska, U.S.A.

Now
28 °F

Partly sunny.


Feels Like: 23 °F
Forecast: 11 / 21 °F
Wind: 5 mph from North

Location: Talkeetna Weather Reporting Station

Current Time: Dec 19, 2014 at 4:11:31 PM

Latest Report: Dec 19, 2014 at 2:53 PM


Visibility: 10 mi

Pressure: 29.20 "Hg

Humidity: 45%

Dew point: 9 °F

Location of TalkeetnaLocation

Historic Weather in Talkeetna — Graph

°F

Talkeetna temperature yesterday

Maximum temperature yesterday: 30 °F (at 12:53 AM)
Minimum temperature yesterday: 7 °F (at 9:53 PM)
Average temperature yesterday: 17 °F

Past Weeks' High & Low Weather Summary

 TemperatureHumidityPressure
High41 °F (Dec 8, 5:53 PM)93% (Dec 17, 4:53 AM)29.88 "Hg (Dec 17, 4:53 AM)
Low3 °F (Dec 11, 11:53 PM)44% (Dec 19, 6:53 AM)28.76 "Hg (Dec 8, 11:53 PM)
Average27 °F70%29.34 "Hg
* Reported Dec 4 2:53 PM — Dec 19 2:53 PM, Talkeetna, Weather by CustomWeather, © 2014

Note: Actual official high and low records may vary slightly from our data, if they occured in-between our weather recording intervals... More about our weather records

Advertising

Talkeetna weather history for previous 24 hours

 ConditionsComfort  
Time TempWeatherWind HumidityBarometerVisibility
2:53 PM
Dec 19
28 °FPartly sunny.5 mph45%29.20 "Hg10 mi
1:53 PM28 °FPartly sunny.8 mph45%29.20 "Hg10 mi
12:53 PM27 °FPartly sunny.10 mph46%29.21 "Hg10 mi
11:53 AM26 °FOvercast.7 mph46%29.22 "Hg10 mi
10:53 AM22 °FOvercast.5 mph52%29.23 "Hg10 mi
9:53 AM17 °FOvercast.3 mph62%29.23 "Hg10 mi
8:53 AM19 °FClear.6 mph57%29.22 "Hg10 mi
7:53 AM25 °FClear.10 mph46%29.23 "Hg10 mi
6:53 AM26 °FClear.14 mph44%29.23 "Hg10 mi
5:53 AM25 °FClear.9 mph46%29.24 "Hg10 mi
4:53 AM17 °FClear.7 mph62%29.23 "Hg10 mi
3:53 AM4 °FPassing clouds.5 mph84%29.25 "Hg10 mi
2:53 AM6 °FClear.No wind87%29.25 "Hg10 mi
1:53 AM9 °FClear.No wind80%29.24 "Hg10 mi
12:53 AM10 °FClear.No wind73%29.24 "Hg10 mi
11:53 PM
Dec 18
9 °FClear.3 mph73%29.25 "Hg10 mi
10:53 PM9 °FClear.3 mph84%29.26 "Hg10 mi
9:53 PM7 °FClear.3 mph79%29.27 "Hg10 mi
8:53 PM9 °FClear.No wind84%29.31 "Hg10 mi
7:53 PM10 °FClear.5 mph76%29.34 "Hg10 mi
6:53 PM12 °FClear.3 mph77%29.36 "Hg10 mi
5:53 PM9 °FClear.5 mph84%29.39 "Hg10 mi
4:53 PM14 °FPassing clouds.5 mph77%29.41 "Hg10 mi
Weather by CustomWeather, © 2014

See weather overviewHow to use our weather pages